Location: Saluda
(35.2377°N, 82.3468°W)
Time: 10:03:19
(UTC+00:00)

deb Explorer IX - Pass Details

Date: 15 October 2022
Orbit: 533 x 1057 km, 38.8° (Epoch: 02 December)

Event Time Altitude Azimuth Distance (km) Brightness Sun altitude
Exits shadow 09:23:51 41° 49° (NE) 825 ? -27.6°
Drops below altitude 10° 09:27:08 10° 81° (E) 1,939 ? -26.9°
Sets 09:29:38 0° 86° (E) 2,916 ? -26.4°
